Location: Harmony
(28.2000°N, 81.1500°W)
Time: 01:50:49
(UTC-04:00)

Daily predictions for brighter satellites

Satellite Brightness Start Highest point End
(mag) Time Altitude Azimuth Time Altitude Azimuth Time Altitude Azimuth
CZ-4C R/B 3.8 00:17:09 29° N 00:17:09 29° N 00:20:11 10° NNE
Cosmos 2344 4.0 00:46:20 55° NNE 00:46:20 55° NNE 00:52:27 10° NNE
Cosmos 2082 Rocket 4.2 01:31:09 24° NNW 01:31:09 24° NNW 01:33:33 10° N
CENTAUR R/B 3.9 02:03:49 33° NNW 02:03:49 33° NNW 02:08:03 10° NNE
SL-16 R/B 4.3 02:14:26 10° NNE 02:18:24 19° ENE 02:18:39 19° ENE
Cosmos 2322 Rocket 4.0 02:24:02 10° N 02:28:09 25° NE 02:28:09 25° NE
Cosmos 1980 Rocket 4.1 02:51:06 10° NNW 02:52:59 22° NNW 02:52:59 22° NNW
Cosmos 2219 4.4 03:12:19 35° E 03:12:19 35° E 03:16:48 10° NE
ATLAS 5 CENTAUR R/B 3.3 03:18:55 32° N 03:18:55 32° N 03:21:55 10° NNE
Lacrosse 5 rocket 4.1 03:18:23 10° NNW 03:19:06 14° NNW 03:19:06 14° NNW
Resurs 1-4 Rocket 3.8 03:19:50 10° NE 03:24:08 25° E 03:24:36 24° ESE
USA 215 3.6 03:20:10 10° NNE 03:26:28 53° NW 03:26:49 53° NW
Cosmos 1709 Rocket 4.3 03:30:36 55° NW 03:30:36 55° NW 03:35:48 10° N
ARIANE 5 R/B 3.5 03:26:02 10° NNE 03:30:18 40° E 03:30:18 40° E
SL-16 R/B 4.3 03:26:45 10° SE 03:31:55 28° ENE 03:37:06 10° NNE
Cosmos 1898 Rocket 4.3 03:33:26 47° ENE 03:33:26 47° ENE 03:37:46 10° NNE
IRS-1D 4.3 03:33:54 10° NNE 03:38:58 45° E 03:39:01 45° E
Aurora 2 Rocket 4.4 03:39:43 57° SW 03:42:01 73° S 03:53:11 10° E
Okean O Rocket 4.2 03:40:22 10° ENE 03:42:11 12° E 03:43:34 11° ESE
Cosmos 1869 Rocket 4.5 03:50:55 44° N 03:50:55 44° N 03:53:59 10° N
ADEOS 4.0 03:49:00 10° N 03:53:19 50° NW 03:53:19 50° NW
H-2A ROCKET BODY 2.6 03:45:33 10° W 03:57:35 38° E 03:59:12 10° E
Cosmos 2150 Rocket 4.0 03:56:40 81° N 03:56:40 81° N 04:01:47 10° NNE
NOSS 3-1 (C) 4.4 03:57:44 30° SE 03:59:10 34° ESE 04:04:33 10° NE
SEDSat Delta rocket 3.9 03:57:31 46° WNW 03:59:44 88° NNE 04:06:30 10° ESE
SL-16 R/B 3.3 03:57:17 10° NW 04:00:26 30° NW 04:00:26 30° NW
Cosmos 2221 Rocket 4.0 03:58:12 10° N 04:01:55 60° N 04:01:55 60° N
Cosmos 2112 Rocket 3.9 04:01:25 10° NNW 04:06:18 75° WNW 04:06:18 75° WNW
Cosmos 858 Rocket 4.4 04:08:44 75° W 04:08:50 75° WNW 04:14:05 10° NNE
ASTRO E2 4.4 04:12:06 25° ESE 04:12:06 25° ESE 04:14:15 10° E
Cosmos 2322 Rocket 3.8 04:07:42 10° NW 04:09:55 21° WNW 04:09:55 21° WNW
OAO 1 Rocket 4.3 04:18:21 69° SSW 04:18:22 69° SSW 04:23:41 10° SE
UNKNOWN OBJECT B 3.0 04:15:33 10° NNE 04:19:24 63° E 04:19:24 63° E
Cosmos 1733 Rocket 3.9 04:18:33 35° SE 04:19:44 44° E 04:23:53 10° NNE
CZ-2D R/B 2.0 04:16:16 10° N 04:21:33 84° WNW 04:22:42 57° SSW
Meteor 2-3 Rocket 3.7 04:22:26 49° SSW 04:24:04 85° W 04:29:54 10° N
USA 229 DEB 4.3 04:24:10 35° W 04:26:05 42° WNW 04:32:39 10° NNE
USA 229 4.3 04:24:15 35° W 04:26:11 43° WNW 04:32:46 10° NNE
Delta 7925 Rocket 4.4 04:28:38 42° SW 04:29:37 45° SSW 04:37:20 10° SE
Coronas F rocket 3.8 04:30:51 17° ESE 04:31:16 18° E 04:33:14 10° NE
GPS 2-04 Rocket1 3.5 04:34:05 33° ESE 04:34:05 33° ESE 04:36:36 10° E
Cosmos 990 Rocket 3.8 04:33:59 49° SSW 04:35:23 79° WNW 04:40:33 10° NNE
Cosmos 2341 Rocket 4.2 04:31:44 21° S 04:36:04 69° E 04:42:22 10° N
EO 1 Del DPAF 3.7 04:37:15 46° WNW 04:37:15 46° WNW 04:40:24 10° NNW
Cosmos 2227 Rocket 2.8 04:35:56 24° S 04:39:10 53° ESE 04:44:39 10° NNE
OAO 3 Rocket 3.6 04:35:55 19° WNW 04:39:12 59° NNE 04:43:50 10° E
In-Cosmos 22 Rocket 4.3 04:38:31 44° WSW 04:39:38 52° W 04:44:53 10° N
Cosmos 2360 Rocket 2.2 04:35:54 10° NNW 04:41:24 56° WSW 04:44:09 29° S
Okean 1-7 3.3 04:37:26 10° NNW 04:41:34 47° W 04:41:34 47° W
MTI 3.8 04:46:06 69° W 04:46:06 69° W 04:49:19 10° NNW
NOSS 3-1 (A) 3.5 04:43:29 28° S 04:46:32 66° ESE 04:52:39 10° NE
Sich 1 Rocket 4.0 04:45:21 22° SSE 04:48:03 58° E 04:52:22 10° NNE
Cosmos 2154 Rocket 4.0 04:44:44 28° SSW 04:48:13 72° W 04:54:33 10° N
CZ-2C R/B 4.3 04:45:40 10° SSE 04:50:02 57° ENE 04:54:30 10° N
Nadezhda 3 Rocket 4.0 04:44:12 10° N 04:50:20 79° E 04:56:30 10° S
GOES 2 Rocket 3.0 04:49:51 35° W 04:51:53 90° S 04:56:10 10° E
CZ-4B R/B 3.3 04:50:03 10° NNE 04:55:34 78° ESE 05:00:00 17° S
DELTA 2 R/B (1) 3.8 04:53:15 29° W 04:56:03 64° NNW 05:01:37 10° NE
UNK 4.0 04:54:48 36° SW 04:56:07 46° W 05:00:31 10° NNW
Cosmos 1908 Rocket 4.2 04:53:29 14° SSE 04:57:12 53° E 05:01:29 10° NNE
PSLV R/B 3.8 04:54:14 10° N 04:58:14 74° WNW 05:00:00 33° SSW
Cosmos 2333 4.5 04:55:09 10° NNW 05:00:48 70° ENE 05:06:29 10° SSE
Cosmos 292 Rocket 3.7 04:57:45 10° NNW 05:02:33 86° WSW 05:07:18 10° SSE
Resurs 1-4 Rocket 3.1 04:59:18 10° NNW 05:03:51 29° WNW 05:05:41 24° WSW
Cosmos 2322 4.3 04:58:57 10° NW 05:04:03 34° WSW 05:06:49 22° SSW
ARIANE 5 R/B 4.2 05:06:28 10° NNW 05:09:30 16° WNW 05:10:39 15° W
Cosmos 1674 Rocket 3.6 05:05:29 10° N 05:09:48 81° E 05:14:09 10° S
ATLAS 2AS CENTAUR R/B 4.0 05:03:58 10° S 05:10:31 40° ESE 05:17:38 10° NE
Iridium 4 Rocket 4.1 05:07:43 10° NNE 05:11:42 44° E 05:15:41 10° SSE
Cosmos 2297 Rocket 2.4 05:06:56 14° S 05:11:47 72° ESE 05:17:26 10° NNE
Cosmos 1782 3.1 05:08:32 10° N 05:12:31 67° E 05:16:27 10° SSE
Thor Agena Rocket 3.7 05:09:16 10° SSE 05:14:33 84° ENE 05:19:52 10° NNW
SL-16 R/B 3.1 05:11:19 18° SSW 05:15:17 35° W 05:20:56 10° NW
ATLAS CENTAUR R/B 1.4 05:13:45 10° NW 05:18:06 55° WSW 05:22:04 10° S
Okean O Rocket 2.2 05:14:33 10° N 05:18:39 39° WNW 05:21:02 21° SW
Cosmos 1125 Rocket 3.5 05:16:00 17° SSW 05:20:05 72° WNW 05:25:23 10° N
CZ-4B R/B 3.0 05:16:48 10° N 05:20:58 67° WNW 05:24:40 14° SSW
Cosmos 1862 3.4 05:18:46 10° S 05:22:44 76° E 05:26:43 10° N
CZ-4B DEB 4.3 05:18:47 10° N 05:24:13 63° WNW 05:29:26 11° SSW
Cosmos 1825 2.8 05:20:55 10° S 05:24:38 57° E 05:28:22 10° NNE
Cosmos 2082 3.9 05:20:32 17° SW 05:24:48 58° WNW 05:30:27 10° N
Cosmos 1340 Rocket 3.5 05:23:20 21° SW 05:25:32 37° W 05:29:16 10° NNW
Cosmos 1892 4.2 05:24:34 19° WSW 05:25:36 21° W 05:28:35 10° NNW
PSLV R/B 4.3 05:21:53 10° NNE 05:26:09 53° E 05:30:22 10° S
Cosmos 2333 Rocket 3.1 05:21:32 10° N 05:27:07 53° ENE 05:32:41 10° SE
GP-B 3.0 05:24:51 10° N 05:29:17 75° W 05:33:42 10° S
Cosmos 389 Rocket 3.9 05:30:50 10° NW 05:33:44 22° W 05:35:28 16° SW
FUSE 4.1 05:31:21 14° WSW 05:35:51 62° S 05:41:10 10° E
Cosmos 1356 Rocket 3.9 05:33:32 14° SSW 05:36:44 39° W 05:40:33 10° N
COSMOS 2428 3.2 05:32:19 10° NW 05:37:30 37° WSW 05:42:39 10° S
CZ-3A R/B 3.9 05:36:41 13° SW 05:39:02 18° S 05:45:31 10° SE
Cosmos 1269 Rocket 4.3 05:40:56 10° NNW 05:46:14 75° ENE 05:51:31 10° SSE
Cosmos 2218 Rocket 4.0 05:40:15 10° SSW 05:46:18 63° W 05:52:23 10° N
SEDSat Delta rocket 4.4 05:39:58 10° W 05:46:19 42° SSW 05:52:23 10° SE
ADEOS Rocket 4.0 05:42:20 10° NNE 05:47:50 43° E 05:53:01 10° S
Cosmos 2237 Rocket 2.5 05:44:01 10° NNW 05:49:43 76° ENE 05:55:23 10° SSE
Okean-O 2.8 05:46:37 10° N 05:50:57 53° WNW 05:55:16 10° SSW
ASTRO E2 2.8 05:47:06 10° W 05:51:07 77° NNW 05:55:07 10° ENE
Cosmos 1782 Rocket 4.1 05:57:40 10° SSW 06:01:45 39° W 06:05:50 10° NNW
Cosmos 2219 Rocket 2.4 05:56:30 10° NNW 06:01:53 50° WSW 06:07:14 10° S
Cosmos 1238 Rocket 4.4 05:57:14 10° NNW 06:03:03 38° W 06:08:06 10° SSW
Meteor PRIRODA 3.8 06:01:08 10° N 06:04:51 60° WNW 06:08:32 10° SSW
